Zurück zum Katalog

ARIANE 2 DEB

LostGTO
NORAD 33559·DEBRIS·🇫🇷 France

Gestartet Jan 27, 1989 von Guiana Space Centre

Loading…

TLE

VeraltetSource: Space-Track

Epoche: May 27, 2016, 15:38 UTC

1 33559U 89006BB  16148.65143925  .00000000  00000-0  00000+0 0  9992
2 33559   8.0752 241.6205 7061690 172.2694 210.9540  2.24211245 83385

Verfolge ARIANE 2 DEB in Echtzeit mit AllMySat

Download on the App Store